FW2576 Weather Reports


time (UTC)temp
C
wind
direction
speed
KPH
gust
KPH
rain 1hr
cm
rain 24hr
cm
rain mn
cm
humidity
%
barometer
mb
20260906232501 33 217 0.0 0.0 0.00 0.00 0.00 20 1016.0
20260906231901 34 220 0.0 0.0 0.00 0.00 0.00 20 1016.1
20260906231301 34 223 0.0 0.0 0.00 0.00 0.00 20 1016.0
20260906230701 34 218 0.0 0.0 0.00 0.00 0.00 20 1016.1
20260906225501 34 243 0.0 1.6 0.00 0.00 0.00 20 1016.1
20260906224900 34 247 0.0 8.0 0.00 0.00 0.00 20 1016.1
20260906224300 34 232 1.6 8.0 0.00 0.00 0.00 20 1016.1
20260906223700 34 210 1.6 8.0 0.00 0.00 0.00 20 1016.1
20260906223100 34 197 0.0 9.7 0.00 0.00 0.00 20 1016.2
20260906222500 34 259 1.6 9.7 0.00 0.00 0.00 20 1016.2
20260906221900 34 227 0.0 17.7 0.00 0.00 0.00 20 1016.2
20260906221300 34 253 6.4 17.7 0.00 0.00 0.00 20 1016.3
20260906220700 34 224 0.0 4.8 0.00 0.00 0.00 20 1016.5
20260906220101 34 136 0.0 11.3 0.00 0.00 0.00 19 1016.6
20260906215459 34 124 0.0 9.7 0.00 0.00 0.00 19 1016.7
20260906214859 33 282 1.6 12.9 0.00 0.00 0.00 20 1016.9
20260906214259 33 235 3.2 12.9 0.00 0.00 0.00 19 1017.0
20260906213659 34 237 1.6 14.5 0.00 0.00 0.00 19 1017.0
20260906213059 33 234 4.8 14.5 0.00 0.00 0.00 19 1017.2
20260906212459 34 245 0.0 0.0 0.00 0.00 0.00 18 1017.3
20260906211900 35 223 0.0 0.0 0.00 0.00 0.00 18 1017.4
20260906211259 33 273 0.0 0.0 0.00 0.00 0.00 18 1017.5
20260906210659 34 228 0.0 6.4 0.00 0.00 0.00 18 1017.6
20260906210100 34 220 0.0 6.4 0.00 0.00 0.00 17 1017.7
20260906205458 34 23 0.0 0.0 0.00 0.00 0.00 17 1017.8
20260906204858 35 31 0.0 1.6 0.00 0.00 0.00 16 1017.9
20260906204258 35 37 0.0 1.6 0.00 0.00 0.00 17 1018.0
20260906203658 34 69 0.0 1.6 0.00 0.00 0.00 17 1018.1
20260906203059 32 327 0.0 0.0 0.00 0.00 0.00 19 1018.2
20260906202458 32 289 0.0 11.3 0.00 0.00 0.00 18 1018.4
20260906201858 32 317 3.2 11.3 0.00 0.00 0.00 19 1018.4
20260906201258 32 270 0.0 8.0 0.00 0.00 0.00 19 1018.5
20260906200658 33 259 1.6 14.5 0.00 0.00 0.00 18 1018.5
20260906200059 34 335 0.0 11.3 0.00 0.00 0.00 18 1018.5
20260906195457 34 18 3.2 11.3 0.00 0.00 0.00 18 1018.6
20260906194858 32 254 0.0 0.0 0.00 0.00 0.00 19 1018.7
20260906194257 32 258 0.0 0.0 0.00 0.00 0.00 19 1018.8
20260906193657 32 258 0.0 0.0 0.00 0.00 0.00 19 1018.9
20260906193057 32 255 0.0 0.0 0.00 0.00 0.00 19 1019.0
20260906192457 31 276 0.0 8.0 0.00 0.00 0.00 19 1019.0
20260906191857 31 232 0.0 6.4 0.00 0.00 0.00 19 1019.2
20260906191257 32 277 0.0 0.0 0.00 0.00 0.00 18 1019.2
20260906190657 32 255 0.0 0.0 0.00 0.00 0.00 19 1019.3
20260906190057 32 209 0.0 0.0 0.00 0.00 0.00 19 1019.5
20260906185456 32 71 0.0 0.0 0.00 0.00 0.00 19 1019.6
20260906184856 32 29 0.0 12.9 0.00 0.00 0.00 19 1019.7
20260906184257 33 2 0.0 11.3 0.00 0.00 0.00 19 1019.9
20260906183656 32 75 0.0 0.0 0.00 0.00 0.00 21 1019.9
20260906183056 31 23 0.0 0.0 0.00 0.00 0.00 21 1020.0
20260906182456 32 12 0.0 1.6 0.00 0.00 0.00 19 1020.1
20260906181856 32 69 0.0 0.0 0.00 0.00 0.00 21 1020.2
20260906181256 31 79 0.0 1.6 0.00 0.00 0.00 22 1020.3
20260906180656 31 119 0.0 0.0 0.00 0.00 0.00 24 1020.5
20260906180056 30 133 0.0 0.0 0.00 0.00 0.00 26 1020.5
20260906175454 31 12 0.0 0.0 0.00 0.00 0.00 24 1020.6
20260906174854 31 34 0.0 0.0 0.00 0.00 0.00 25 1020.6
20260906174254 31 53 0.0 0.0 0.00 0.00 0.00 25 1020.7
20260906173654 30 25 0.0 0.0 0.00 0.00 0.00 26 1020.8
20260906173054 30 7 0.0 8.0 0.00 0.00 0.00 25 1020.9
20260906172454 30 31 3.2 11.3 0.00 0.00 0.00 27 1021.0
20260906171854 30 15 8.0 11.3 0.00 0.00 0.00 27 1021.0
20260906171254 30 355 6.4 11.3 0.00 0.00 0.00 27 1021.1
20260906170654 30 22 0.0 6.4 0.00 0.00 0.00 28 1021.1
20260906170054 29 70 0.0 11.3 0.00 0.00 0.00 29 1021.1
20260906165454 28 31 1.6 11.3 0.00 0.00 0.00 30 1021.2
20260906164854 27 10 1.6 12.9 0.00 0.00 0.00 30 1021.3
20260906164254 27 22 3.2 12.9 0.00 0.00 0.00 30 1021.3
20260906163654 28 12 3.2 16.1 0.00 0.00 0.00 31 1021.3
20260906163054 28 350 12.9 16.1 0.00 0.00 0.00 30 1021.3
20260906162454 28 349 0.0 16.1 0.00 0.00 0.00 30 1021.3
20260906161853 28 12 8.0 16.1 0.00 0.00 0.00 30 1021.3
20260906161253 28 36 0.0 16.1 0.00 0.00 0.00 31 1021.4
20260906160653 27 35 1.6 14.5 0.00 0.00 0.00 31 1021.3
20260906160055 27 29 1.6 14.5 0.00 0.00 0.00 32 1021.3
20260906155453 26 51 1.6 19.3 0.00 0.00 0.00 32 1021.3
20260906154853 26 349 3.2 19.3 0.00 0.00 0.00 32 1021.3
20260906154253 26 352 6.4 14.5 0.00 0.00 0.00 32 1021.3
20260906153652 26 19 4.8 19.3 0.00 0.00 0.00 33 1021.3
20260906153052 25 6 8.0 19.3 0.00 0.00 0.00 33 1021.3
20260906152453 25 335 3.2 11.3 0.00 0.00 0.00 33 1021.1
20260906151852 25 301 1.6 12.9 0.00 0.00 0.00 34 1021.3
20260906151252 24 12 4.8 16.1 0.00 0.00 0.00 35 1021.3
20260906150653 23 345 11.3 17.7 0.00 0.00 0.00 35 1021.4
20260906150053 23 335 14.5 17.7 0.00 0.00 0.00 35 1021.3
20260906145451 23 335 14.5 19.3 0.00 0.00 0.00 35 1021.3
20260906144851 23 3 12.9 17.7 0.00 0.00 0.00 35 1021.3
20260906144251 23 330 8.0 17.7 0.00 0.00 0.00 35 1021.3
20260906143651 23 345 9.7 19.3 0.00 0.00 0.00 35 1021.1
20260906143052 23 340 4.8 16.1 0.00 0.00 0.00 35 1021.1
20260906142451 22 345 12.9 16.1 0.00 0.00 0.00 36 1021.1
20260906141851 22 10 8.0 16.1 0.00 0.00 0.00 38 1021.1
20260906141251 21 357 0.0 0.0 0.00 0.00 0.00 39 1021.1
20260906140651 21 18 0.0 0.0 0.00 0.00 0.00 40 1021.0
20260906140051 20 22 0.0 0.0 0.00 0.00 0.00 40 1021.0
20260906135449 20 47 0.0 0.0 0.00 0.00 0.00 40 1020.9
20260906134849 20 55 0.0 0.0 0.00 0.00 0.00 40 1020.9
20260906134249 20 1 0.0 0.0 0.00 0.00 0.00 40 1020.8
20260906133649 20 351 0.0 0.0 0.00 0.00 0.00 40 1020.7
20260906133049 20 351 0.0 0.0 0.00 0.00 0.00 39 1020.6
20260906132450 20 345 0.0 0.0 0.00 0.00 0.00 39 1020.6
20260906131849 20 345 0.0 0.0 0.00 0.00 0.00 39 1020.6
20260906131249 20 354 0.0 0.0 0.00 0.00 0.00 39 1020.6
20260906130649 20 356 0.0 0.0 0.00 0.00 0.00 39 1020.6
20260906130049 20 356 0.0 0.0 0.00 0.00 0.00 39 1020.5
20260906125448 20 356 0.0 0.0 0.00 0.00 0.00 39 1020.5
20260906124848 20 356 0.0 0.0 0.00 0.00 0.00 39 1020.4
20260906124248 20 356 0.0 0.0 0.00 0.00 0.00 39 1020.4
20260906123648 20 356 0.0 0.0 0.00 0.00 0.00 39 1020.4
20260906123048 20 356 0.0 0.0 0.00 0.00 0.00 40 1020.4
20260906122449 20 356 0.0 0.0 0.00 0.00 0.00 41 1020.4
20260906121848 20 356 0.0 0.0 0.00 0.00 0.00 41 1020.4
20260906121248 20 356 0.0 0.0 0.00 0.00 0.00 42 1020.4
20260906120648 20 357 0.0 0.0 0.00 0.00 0.00 43 1020.3
20260906120049 20 357 0.0 0.0 0.00 0.00 0.00 43 1020.3
20260906115447 20 357 0.0 0.0 0.00 0.00 0.00 42 1020.2
20260906114847 20 357 0.0 0.0 0.00 0.00 0.00 42 1020.3
20260906114248 21 357 0.0 0.0 0.00 0.00 0.00 42 1020.3
20260906113647 21 357 0.0 0.0 0.00 0.00 0.00 41 1020.3
20260906113047 21 357 0.0 0.0 0.00 0.00 0.00 41 1020.3
20260906112448 21 357 0.0 0.0 0.00 0.00 0.00 40 1020.2
20260906111847 21 357 0.0 0.0 0.00 0.00 0.00 39 1020.2
20260906111247 21 357 0.0 0.0 0.00 0.00 0.00 39 1020.2
20260906110647 22 357 0.0 0.0 0.00 0.00 0.00 38 1020.1
20260906110047 22 357 0.0 0.0 0.00 0.00 0.00 38 1020.1
20260906105447 22 356 0.0 0.0 0.00 0.00 0.00 37 1020.2
20260906104847 22 349 0.0 0.0 0.00 0.00 0.00 36 1020.2
20260906104247 22 345 0.0 0.0 0.00 0.00 0.00 36 1020.2
20260906103647 22 345 0.0 0.0 0.00 0.00 0.00 36 1020.2
20260906103047 22 345 0.0 0.0 0.00 0.00 0.00 35 1020.1
20260906102446 22 345 0.0 0.0 0.00 0.00 0.00 35 1020.1
20260906101846 22 345 0.0 0.0 0.00 0.00 0.00 35 1020.0
20260906101247 22 311 0.0 0.0 0.00 0.00 0.00 36 1020.0
20260906100646 23 329 0.0 0.0 0.00 0.00 0.00 36 1019.9
20260906100047 23 340 0.0 0.0 0.00 0.00 0.00 36 1020.0
20260906095446 23 340 0.0 0.0 0.00 0.00 0.00 35 1019.9
20260906094846 23 340 0.0 0.0 0.00 0.00 0.00 35 1019.9
20260906094246 23 340 0.0 0.0 0.00 0.00 0.00 35 1019.9
20260906093646 23 335 0.0 0.0 0.00 0.00 0.00 34 1019.9
20260906093046 23 335 0.0 0.0 0.00 0.00 0.00 35 1019.9
20260906092446 23 335 0.0 0.0 0.00 0.00 0.00 35 1019.8
20260906091846 23 335 0.0 0.0 0.00 0.00 0.00 35 1019.7
20260906091246 23 305 0.0 0.0 0.00 0.00 0.00 35 1019.7
20260906090646 23 326 0.0 0.0 0.00 0.00 0.00 36 1019.7
20260906090046 23 328 0.0 0.0 0.00 0.00 0.00 36 1019.6
20260906085446 23 324 0.0 0.0 0.00 0.00 0.00 36 1019.5
20260906084846 23 319 0.0 0.0 0.00 0.00 0.00 35 1019.5
20260906084246 23 316 0.0 0.0 0.00 0.00 0.00 35 1019.7
20260906083646 23 290 0.0 0.0 0.00 0.00 0.00 35 1019.7
20260906083046 23 291 0.0 0.0 0.00 0.00 0.00 35 1019.7
20260906082446 23 290 0.0 0.0 0.00 0.00 0.00 35 1019.7
20260906081846 23 288 0.0 0.0 0.00 0.00 0.00 35 1019.7
20260906081246 23 289 0.0 0.0 0.00 0.00 0.00 35 1019.7
20260906080646 23 311 0.0 0.0 0.00 0.00 0.00 34 1019.9
20260906080046 23 314 0.0 0.0 0.00 0.00 0.00 35 1019.9
20260906075446 23 314 0.0 0.0 0.00 0.00 0.00 35 1020.0
20260906074846 23 311 0.0 0.0 0.00 0.00 0.00 35 1020.0
20260906074246 23 315 0.0 0.0 0.00 0.00 0.00 36 1020.0
20260906073646 23 314 0.0 0.0 0.00 0.00 0.00 36 1020.1
20260906073046 23 355 0.0 0.0 0.00 0.00 0.00 36 1020.1
20260906072446 23 20 0.0 0.0 0.00 0.00 0.00 36 1020.1
20260906071846 23 31 0.0 0.0 0.00 0.00 0.00 36 1020.1
20260906071246 23 31 0.0 0.0 0.00 0.00 0.00 36 1020.1
20260906070646 23 37 0.0 0.0 0.00 0.00 0.00 36 1020.1
20260906070046 23 37 0.0 0.0 0.00 0.00 0.00 35 1020.1
20260906065446 24 37 0.0 0.0 0.00 0.00 0.00 35 1020.1
20260906064846 24 37 0.0 0.0 0.00 0.00 0.00 34 1020.1
20260906064246 24 37 0.0 0.0 0.00 0.00 0.00 34 1020.1
20260906063646 23 45 0.0 0.0 0.00 0.00 0.00 35 1020.0
20260906063046 23 20 0.0 0.0 0.00 0.00 0.00 35 1020.0
20260906062447 23 20 0.0 0.0 0.00 0.00 0.00 35 1019.9
20260906061845 23 345 0.0 0.0 0.00 0.00 0.00 35 1019.8
20260906061245 23 340 0.0 0.0 0.00 0.00 0.00 36 1019.7
20260906060647 23 340 0.0 0.0 0.00 0.00 0.00 36 1019.7
20260906060046 23 340 0.0 0.0 0.00 0.00 0.00 36 1019.7
20260906055446 24 357 0.0 0.0 0.00 0.00 0.00 36 1019.7
20260906054846 24 357 0.0 0.0 0.00 0.00 0.00 36 1019.5
20260906054246 24 351 0.0 6.4 0.00 0.00 0.00 35 1019.5
20260906053646 24 319 1.6 8.0 0.00 0.00 0.00 36 1019.5
20260906053045 24 313 1.6 8.0 0.00 0.00 0.00 36 1019.4
20260906052445 24 305 0.0 8.0 0.00 0.00 0.00 36 1019.5
20260906051846 24 307 1.6 8.0 0.00 0.00 0.00 36 1019.4
20260906051245 24 316 0.0 6.4 0.00 0.00 0.00 36 1019.4
20260906050645 24 311 1.6 6.4 0.00 0.00 0.00 36 1019.3
20260906050046 24 273 0.0 6.4 0.00 0.00 0.00 36 1019.3
20260906045445 25 303 0.0 0.0 0.00 0.00 0.00 36 1019.2
20260906044845 25 301 0.0 9.7 0.00 0.00 0.00 36 1019.3
20260906044245 25 309 0.0 4.8 0.00 0.00 0.00 35 1019.3
20260906043645 25 316 0.0 0.0 0.00 0.00 0.00 35 1019.3
20260906043045 25 297 0.0 0.0 0.00 0.00 0.00 35 1019.3
20260906042446 25 314 0.0 8.0 0.00 0.00 0.00 35 1019.3
20260906041845 25 308 0.0 0.0 0.00 0.00 0.00 34 1019.2
20260906041245 25 322 0.0 0.0 0.00 0.00 0.00 34 1019.3
20260906040645 25 310 0.0 0.0 0.00 0.00 0.00 33 1019.3
20260906040045 25 294 0.0 0.0 0.00 0.00 0.00 33 1019.4
20260906035445 26 310 0.0 0.0 0.00 0.00 0.00 33 1019.4
20260906034845 26 316 0.0 0.0 0.00 0.00 0.00 33 1019.3
20260906034245 26 305 0.0 8.0 0.00 0.00 0.00 32 1019.3
20260906033645 26 301 0.0 1.6 0.00 0.00 0.00 32 1019.3
20260906033045 26 276 0.0 0.0 0.00 0.00 0.00 32 1019.2
20260906032445 26 303 0.0 0.0 0.00 0.00 0.00 31 1019.2
20260906031845 26 311 0.0 4.8 0.00 0.00 0.00 31 1019.0
20260906031245 26 314 0.0 0.0 0.00 0.00 0.00 31 1018.9
20260906030645 27 351 0.0 0.0 0.00 0.00 0.00 31 1018.8
20260906030046 27 304 0.0 0.0 0.00 0.00 0.00 30 1018.8
20260906025445 27 284 0.0 0.0 0.00 0.00 0.00 30 1018.7
20260906024845 27 315 0.0 0.0 0.00 0.00 0.00 30 1018.7
20260906024245 27 309 0.0 0.0 0.00 0.00 0.00 30 1018.5
20260906023645 27 326 0.0 0.0 0.00 0.00 0.00 30 1018.5
20260906023045 28 308 0.0 0.0 0.00 0.00 0.00 30 1018.4
20260906022445 28 302 0.0 6.4 0.00 0.00 0.00 30 1018.3
20260906021845 28 299 0.0 0.0 0.00 0.00 0.00 29 1018.3
20260906021245 28 324 0.0 6.4 0.00 0.00 0.00 29 1018.3
20260906020645 28 281 0.0 6.4 0.00 0.00 0.00 29 1018.2
20260906020045 29 289 0.0 0.0 0.00 0.00 0.00 29 1018.1
20260906015445 29 311 0.0 6.4 0.00 0.00 0.00 29 1018.0
20260906014845 29 299 3.2 9.7 0.00 0.00 0.00 28 1018.0
20260906014245 30 299 0.0 8.0 0.00 0.00 0.00 28 1018.0
20260906013645 30 335 1.6 6.4 0.00 0.00 0.00 28 1018.0
20260906013045 30 298 1.6 9.7 0.00 0.00 0.00 28 1018.0
20260906012445 30 283 1.6 11.3 0.00 0.00 0.00 28 1018.0
20260906011845 30 296 1.6 9.7 0.00 0.00 0.00 28 1018.0
20260906011245 30 308 0.0 4.8 0.00 0.00 0.00 28 1017.9
20260906010645 30 325 1.6 6.4 0.00 0.00 0.00 27 1018.0
20260906010045 31 335 1.6 11.3 0.00 0.00 0.00 27 1018.0
20260906005445 31 335 6.4 12.9 0.00 0.00 0.00 27 1017.9
20260906004845 31 319 8.0 12.9 0.00 0.00 0.00 27 1017.9
20260906004245 31 350 0.0 12.9 0.00 0.00 0.00 27 1018.0
20260906003645 31 274 3.2 12.9 0.00 0.00 0.00 27 1018.1
20260906003045 31 329 3.2 12.9 0.00 0.00 0.00 27 1018.0
20260906002445 31 276 0.0 14.5 0.00 0.00 0.00 26 1018.0
20260906001845 32 265 6.4 14.5 0.00 0.00 0.00 26 1018.0
20260906001245 31 291 1.6 11.3 0.00 0.00 0.00 27 1017.9
20260906000644 32 345 0.0 17.7 0.00 0.00 0.00 26 1017.8
20260906000045 31 335 8.0 17.7 0.00 0.00 0.00 26 1017.9
20260905235444 31 313 0.0 12.9 0.00 0.00 0.00 27 1017.9
20260905234844 31 321 3.2 14.5 0.00 0.00 0.00 27 1017.9
20260905234245 31 325 4.8 14.5 0.00 0.00 0.00 27 1017.9
20260905233644 31 311 9.7 16.1 0.00 0.00 0.00 27 1017.8
20260905233044 31 326 4.8 9.7 0.00 0.00 0.00 27 1017.8